Theta_e
296 298 302 301 302 302 299 299 297 298 300 306 309 311 314 318 321 321 323 325 326 327 327 329 330 331 333 333 335 336 337 337 337 340 342 342 342 344 347 347 347 347 345 344
297 302 302 301 302 303 303 301 300 299 301 307 311 315 316 318 320 320 323 326 327 329 329 329 330 331 334 335 335 336 336 339 342 342 343 343 344 346 346 345 345 344 342 345
291 299 299 295 300 302 303 303 303 299 304 307 307 313 315 315 320 321 323 326 328 329 330 334 336 335 334 335 338 337 338 339 341 343 343 344 344 344 341 339 339 340 341 342
291 294 289 298 302 305 303 305 304 305 306 308 309 312 316 317 320 322 323 324 326 330 334 336 336 337 339 339 340 339 338 339 339 340 342 343 343 344 342 342 341 339 340 339
293 289 295 301 304 304 303 303 306 304 305 309 314 314 314 317 318 322 323 327 330 333 333 335 336 336 336 335 336 337 336 336 337 339 340 340 340 342 342 341 340 337 335 336
292 291 291 299 307 311 306 297 308 306 307 310 312 305 309 324 325 328 330 331 331 332 333 332 331 332 330 329 331 330 330 331 332 336 336 337 338 340 342 339 337 336 335 336
293 292 296 303 309 310 297 299 308 310 309 310 309 310 318 326 326 328 328 329 330 329 327 326 326 327 326 327 326 325 325 326 328 333 336 337 337 337 341 339 336 335 335 336
293 291 292 309 311 302 304 309 311 313 311 310 318 323 324 324 325 326 326 326 326 325 324 324 325 325 323 321 322 324 324 322 326 328 329 331 332 334 336 340 337 336 337 336
296 296 304 308 309 311 311 309 313 315 321 321 323 323 323 322 324 325 324 324 324 323 323 322 323 323 321 322 324 323 322 320 320 320 320 323 328 329 329 330 333 335 334 332
300 302 306 311 313 315 316 314 315 324 325 325 323 323 323 323 323 323 324 323 323 322 321 321 321 323 322 321 323 322 319 318 318 316 314 313 315 321 325 325 325 324 323 324
300 304 307 310 313 316 317 324 327 328 327 325 324 323 323 322 322 323 324 323 323 321 322 322 322 321 321 321 321 320 319 319 319 318 315 311 306 304 314 313 315 323 323 322
298 306 309 309 313 317 318 317 326 326 325 326 325 323 323 322 322 321 322 322 323 324 324 324 324 321 322 322 320 319 318 318 318 320 319 319 318 314 304 301 300 300 302 313
305 309 312 315 317 318 318 318 322 327 326 324 324 322 322 319 319 320 323 325 326 325 326 326 325 325 323 324 322 320 318 318 319 318 320 318 317 316 316 311 302 298 297 298
313 312 311 315 313 318 320 320 323 328 326 325 323 321 319 318 318 320 321 323 325 326 325 326 325 324 325 326 324 322 321 313 319 319 318 318 317 315 316 316 314 311 303 299
309 312 313 314 316 317 320 320 324 323 322 320 320 318 318 317 317 318 319 321 322 323 323 325 326 326 328 326 325 324 321 321 321 319 317 315 315 314 315 313 312 310 312 308
307 308 310 312 312 314 317 317 322 321 320 318 317 317 318 318 317 318 319 319 320 320 321 323 325 328 329 326 325 324 325 320 318 318 316 315 315 314 313 313 312 312 312 310
304 304 306 309 310 312 315 317 322 322 320 317 317 317 318 317 317 317 318 319 320 321 323 322 323 327 329 328 328 326 324 323 321 320 318 316 316 314 312 312 312 312 312 311
312 311 310 311 312 313 316 318 321 322 319 319 317 317 318 317 317 318 320 321 321 322 324 326 326 327 328 329 328 326 325 324 323 323 323 320 316 316 314 313 311 311 312 311
312 312 315 315 316 315 316 318 319 323 322 319 316 316 318 319 319 321 322 322 322 322 324 326 325 327 329 328 327 326 326 323 321 323 324 319 321 317 315 314 313 313 313 313
311 317 318 320 321 319 317 318 322 322 323 320 317 316 317 319 320 321 322 322 324 325 326 326 327 326 328 329 328 327 326 324 320 321 321 320 322 322 319 311 316 314 314 314
313 317 318 317 318 320 321 320 318 317 319 321 319 318 318 320 321 322 321 321 325 324 326 323 326 326 326 327 328 327 326 325 323 319 318 317 317 318 320 320 319 317 315 316
313 316 316 318 319 320 321 321 319 319 320 321 322 322 321 320 320 321 324 325 326 316 324 325 326 325 327 326 327 328 327 327 323 318 316 315 314 314 314 317 319 320 319 318
315 316 317 318 318 318 319 318 319 320 320 321 321 321 322 322 322 321 321 326 326 321 326 327 322 320 321 328 328 328 328 327 327 325 323 319 316 314 313 315 317 319 320 320
316 318 319 319 318 317 316 317 319 321 322 324 324 323 323 323 325 328 328 320 316 319 323 326 322 317 316 327 327 327 328 328 327 326 324 311 319 317 314 314 314 316 318 315
318 318 318 317 315 314 316 319 320 321 321 321 323 325 327 330 327 325 324 324 317 318 326 319 317 316 323 326 326 326 326 326 326 325 324 322 321 318 317 316 314 315 316 318
316 316 316 316 316 318 319 320 318 320 321 320 320 321 322 324 326 325 324 319 324 317 324 327 325 325 323 325 327 327 326 327 324 323 322 323 322 320 319 318 317 316 316 317
316 310 316 316 317 317 318 318 318 318 319 321 321 322 323 323 323 323 318 324 324 323 325 327 327 322 324 325 325 326 326 326 318 324 323 321 320 320 319 319 319 318 318 318
Wind_Speed
7 4 3 6 8 10 8 5 6 4 9 11 10 10 9 9 5 5 5 6 7 7 7 6 6 6 6 6 7 7 8 9 12 8 8 8 10 8 7 8 9 7 7 7
5 7 7 3 7 11 5 5 3 2 7 9 4 4 5 8 6 7 7 6 7 7 7 8 8 6 5 5 4 6 8 10 7 7 8 10 9 8 6 6 4 4 4 5
6 2 7 1 8 8 5 4 8 6 12 5 5 8 10 8 8 9 8 8 8 9 7 5 4 5 6 6 5 6 7 5 4 5 8 9 10 8 9 10 7 5 4 6
2 4 3 10 2 3 7 5 7 3 5 10 10 10 3 7 9 9 9 8 8 4 4 4 4 5 5 5 2 3 3 3 4 5 5 5 8 11 11 10 13 12 17 12
4 4 6 4 2 5 8 9 8 10 6 6 3 3 4 8 5 5 5 3 4 4 4 6 5 5 7 6 5 5 4 3 3 2 4 4 8 11 10 10 11 13 11 12
3 5 7 8 3 1 1 3 6 7 8 7 7 4 7 5 5 6 7 6 8 8 6 7 4 5 7 5 3 3 3 4 4 4 5 5 5 7 10 9 11 8 9 9
4 5 8 7 3 1 5 10 3 4 5 8 5 4 2 5 4 5 5 9 7 8 7 5 4 5 7 3 2 3 4 4 5 5 5 5 4 4 6 8 8 8 8 7
3 2 6 4 1 6 6 3 3 3 5 7 4 5 5 6 6 8 10 8 6 7 7 5 5 5 6 4 3 3 4 5 4 4 4 3 4 3 3 5 8 9 8 6
7 7 4 4 5 5 1 5 4 5 4 7 6 4 5 6 6 6 7 6 4 7 7 4 4 5 5 2 2 3 4 4 5 4 4 5 3 2 1 2 2 4 6 6
4 3 5 5 6 5 3 7 8 4 6 6 6 6 6 6 6 5 5 5 4 6 6 4 3 5 5 3 3 4 4 5 4 4 4 5 4 4 2 1 0 2 2 3
6 7 8 6 5 4 9 7 3 4 5 6 10 6 6 5 5 5 5 5 5 6 6 4 4 3 2 4 4 5 4 4 3 3 3 4 5 4 3 2 2 1 1 2
6 4 2 7 7 6 6 6 8 7 4 3 7 9 7 6 5 5 5 5 5 6 6 5 5 4 4 3 4 3 4 2 3 2 2 4 3 4 12 9 12 9 8 4
11 4 6 7 10 6 5 5 5 6 7 10 5 6 6 5 4 6 6 6 8 9 8 6 5 5 5 4 4 3 3 2 1 1 2 3 3 3 4 5 15 17 13 11
9 2 7 3 6 6 5 6 4 2 3 4 8 5 5 6 4 6 6 5 5 6 5 5 5 5 5 6 5 4 3 3 1 0 2 3 3 3 3 4 4 4 10 11
9 10 9 5 3 6 3 5 2 2 3 4 3 5 7 7 7 6 7 6 6 6 5 6 6 4 6 7 6 5 5 4 2 1 2 2 3 3 3 3 4 4 3 8
12 13 9 11 10 8 5 6 5 5 5 5 5 6 6 6 6 7 8 7 7 5 6 6 5 5 7 6 6 5 5 6 5 3 3 3 3 3 3 3 2 3 3 2
8 12 6 6 7 7 9 7 6 8 6 8 8 6 6 6 6 6 6 6 5 5 5 6 5 5 7 8 7 5 4 5 7 4 4 3 3 3 3 3 3 4 3 3
14 15 9 7 7 10 7 9 6 9 11 7 6 7 7 8 9 8 7 5 5 4 4 4 5 5 7 8 7 5 5 5 4 4 4 4 3 3 2 2 1 2 2 4
11 14 9 8 8 7 7 7 6 6 7 7 7 12 10 8 6 5 5 6 5 5 5 5 8 8 7 8 8 5 6 5 3 4 4 4 5 4 5 5 5 5 5 5
9 10 7 8 5 5 6 6 7 7 7 10 9 7 7 8 7 6 6 7 7 5 5 6 7 7 6 7 11 6 6 5 4 4 4 4 5 5 5 6 6 6 6 6
9 8 8 7 5 6 6 5 7 11 10 12 12 10 12 7 6 6 6 4 5 7 5 6 5 5 4 5 6 5 5 5 4 4 5 5 4 5 5 5 6 6 6 6
5 7 5 6 3 6 1 5 7 5 7 8 8 7 8 7 6 5 4 4 2 8 5 5 6 8 7 10 5 6 6 6 5 4 4 4 5 5 5 6 7 7 7 7
5 4 5 6 7 6 5 4 5 7 8 10 11 9 7 3 4 3 2 4 2 4 3 5 8 13 14 8 7 7 8 8 7 6 6 5 6 6 6 6 7 7 7 7
3 5 2 3 5 6 6 4 3 5 6 7 7 8 8 7 5 3 5 5 4 3 5 7 8 13 12 5 5 6 7 8 8 7 7 7 5 5 5 6 7 7 7 7
6 6 6 6 5 4 5 3 5 5 7 5 6 6 7 3 5 6 3 6 11 1 4 9 13 13 6 3 4 5 6 6 7 6 6 6 6 6 6 5 6 7 7 7
9 6 6 6 4 5 5 5 6 4 2 6 7 5 7 2 2 3 3 5 1 3 5 4 4 1 2 3 4 3 4 5 5 5 7 6 7 7 6 6 6 7 8 8
5 2 5 7 6 5 5 4 5 5 5 5 6 6 5 0 1 3 4 2 2 2 2 2 1 3 3 3 2 3 3 4 5 5 6 6 6 6 6 6 6 6 6 7
Wind_Direction
236 208 208 176 174 167 178 182 163 261 203 231 220 209 211 224 262 251 198 176 193 192 198 212 215 205 194 200 185 184 194 198 216 207 193 191 219 216 205 202 214 213 213 224
224 181 161 285 216 173 189 176 242 210 263 220 270 139 204 218 207 229 206 192 212 211 194 202 203 207 194 218 202 174 201 219 214 199 185 198 218 196 193 182 171 155 213 235
255 322 108 264 208 202 179 177 151 176 232 163 207 223 228 207 194 207 203 197 201 206 196 158 180 176 190 193 190 188 208 225 215 206 200 199 206 197 183 158 149 161 218 209
240 10 158 235 242 217 197 192 208 248 225 200 208 229 262 179 187 206 198 201 209 165 125 116 95 91 95 90 126 159 201 230 223 232 232 178 196 212 201 190 202 194 226 219
162 198 275 271 185 179 174 247 191 211 256 208 150 99 268 198 200 208 134 104 106 116 110 95 89 87 88 63 61 62 44 26 1 297 242 196 196 212 207 202 200 211 221 215
140 180 206 234 260 183 177 282 218 193 210 175 145 129 248 139 121 104 112 123 121 107 93 92 79 91 87 68 50 31 355 326 316 310 288 261 225 207 213 214 219 221 228 224
181 214 281 250 260 332 127 232 296 211 180 158 194 185 152 108 81 102 105 113 104 97 101 108 108 106 98 105 46 322 312 309 302 288 282 276 277 235 224 207 205 213 216 218
102 139 269 6 119 170 228 252 224 202 198 164 139 117 116 100 108 111 110 101 99 105 103 100 106 106 91 68 11 357 345 337 324 323 327 311 290 286 269 229 205 211 208 212
183 222 260 280 256 291 257 275 223 166 129 136 129 155 132 110 109 110 112 115 111 113 111 94 88 91 100 88 48 13 6 2 351 356 5 350 331 327 303 349 278 217 205 202
19 299 272 293 304 278 274 260 279 151 141 145 126 117 98 111 119 120 125 126 113 114 114 114 92 89 91 77 51 47 29 14 4 13 26 19 4 358 353 348 112 160 179 197
273 292 293 292 265 307 327 321 192 108 123 135 128 130 132 137 147 149 142 122 123 123 122 123 98 94 114 125 104 82 62 28 24 44 61 61 54 6 357 29 307 199 208 171
237 234 181 265 298 321 323 331 292 129 114 163 132 146 144 155 151 145 139 139 128 128 131 147 138 151 173 172 138 140 103 73 21 53 52 74 64 58 42 50 45 47 78 109
248 224 216 267 279 266 288 311 318 289 160 149 125 141 147 129 139 139 145 153 157 163 171 156 162 189 178 184 170 172 130 102 38 31 31 70 52 51 60 64 66 48 42 67
238 198 286 200 267 351 317 320 308 91 62 126 144 130 124 124 128 146 160 161 150 147 147 164 163 197 191 195 192 185 163 158 196 17 71 58 63 45 21 74 41 24 29 43
244 213 227 234 260 283 280 318 247 196 138 133 143 153 136 141 156 166 151 148 146 137 153 178 193 210 181 186 189 180 166 173 182 156 84 86 79 64 57 57 91 76 52 53
271 266 226 225 244 250 231 259 215 199 194 156 182 165 167 153 149 156 160 159 141 167 184 177 187 181 173 178 186 183 190 177 157 166 144 135 115 110 90 91 72 94 93 93
266 266 257 228 220 226 217 220 203 202 198 174 193 153 156 150 153 170 185 182 169 175 186 166 187 167 164 174 188 191 168 185 177 173 167 153 138 151 144 177 153 146 154 155
245 244 237 233 214 222 206 209 192 174 195 186 150 155 171 174 186 190 191 169 168 192 221 203 181 175 177 176 183 183 182 181 185 199 175 164 172 184 175 183 183 173 172 175
244 225 227 224 211 190 183 188 180 172 161 161 165 192 197 196 193 191 161 174 186 196 236 193 194 186 188 187 177 179 191 189 190 216 209 178 186 185 181 190 189 197 195 184
235 206 198 207 197 175 200 191 171 189 186 183 182 168 189 220 195 173 179 203 202 204 148 186 182 192 195 194 184 182 186 188 198 204 197 205 214 211 203 199 193 196 194 199
215 191 179 188 214 225 232 209 154 218 192 186 182 186 202 199 185 173 180 210 229 185 190 182 189 202 182 175 180 186 187 201 197 211 204 201 205 219 221 212 208 206 202 205
219 204 173 169 211 311 106 233 221 224 184 184 188 177 168 178 180 196 207 200 80 170 179 192 196 201 193 177 181 192 201 203 196 194 214 212 215 222 224 216 220 215 211 211
192 189 192 173 197 210 219 204 228 202 180 183 175 182 185 133 119 165 45 356 208 213 252 234 211 198 190 185 188 192 198 205 213 212 212 211 214 214 221 220 212 212 216 214
132 102 92 92 143 155 159 188 147 179 151 145 162 169 142 124 99 133 141 181 192 220 229 253 218 211 190 206 207 203 204 206 209 215 221 219 222 218 224 220 217 218 216 207
59 53 47 62 75 65 95 105 59 49 64 92 97 88 128 148 143 191 181 48 297 89 228 233 228 219 200 214 217 213 210 218 222 216 219 222 225 220 227 220 228 229 223 220
50 56 55 39 70 85 73 83 97 83 153 91 65 57 57 11 289 275 263 132 321 250 251 251 223 212 130 168 208 232 230 221 212 224 239 236 236 236 234 224 225 228 230 230
31 20 71 63 40 64 82 83 73 69 75 84 93 79 58 286 25 70 69 29 268 260 262 258 156 160 185 218 223 249 263 252 226 224 225 235 232 238 247 252 244 233 231 230